sat.trackr.live / text

‹ back to catalog

STARLINK-3598

NORAD 51897 · 2022-022AX

PAYLOAD ACTIVE UNKNOWN

§ Identity

Operator
Country
US
Launch date
2022-03-03
Launch site
AFETR
Launch vehicle
Mass (kg)
RCS (m²)

Purposes: comms

External: N2YO · Heavens-Above · Gunter

§ Orbital elements

Epoch: 2026-05-25T00:54:40.239936Z

Period
95.44 min
Inclination
53.2144°
Eccentricity
0.0001294
Mean motion
15.08841922 rev/d
Perigee alt
538.8 km
Apogee alt
540.6 km
Semi-major
6,917.9 km
B*
4.4039e-5
RAAN
16.3789°
Arg perigee
80.3275°
Mean anomaly
279.7863°
Rev number
23,477

§ Raw data

STARLINK-35981 51897U 22022AX  26145.03796574  .00000413  00000+0  44039-4 0  99982 51897  53.2144  16.3789 0001294  80.3275 279.7863 15.08841922234771

JSON: /api/v1/satellites/51897 · /tle

For live sub-satellite position, see the globe view (requires WebGL).

§ Visibility from observer

Set your observer location to see the next 7 days of passes ≥ 10°. The values pass through the URL so the page stays shareable.

No JS? Fill the form by hand. The geolocation button needs JavaScript.